FW0303 Weather Reports


time (UTC)temp
C
wind
direction
speed
KPH
gust
KPH
rain 1hr
cm
rain 24hr
cm
rain mn
cm
humidity
%
barometer
mb
20260504214529 22 233 0.0 0.0 0.00 0.00 0.00 33 1009.5
20260504213039 22 5 0.0 0.0 0.00 0.00 0.00 32 1009.5
20260504211532 23 59 0.0 0.0 0.00 0.00 0.00 33 1009.6
20260504210025 22 194 0.0 0.0 0.00 0.00 0.00 33 1009.7
20260504204535 22 294 0.0 0.0 0.00 0.00 0.00 33 1009.5
20260504203024 22 32 0.0 0.0 0.00 0.00 0.00 32 1009.6
20260504201519 22 360 0.0 0.0 0.00 0.00 0.00 29 1009.6
20260504200018 23 5 0.0 0.0 0.00 0.00 0.00 29 1009.6
20260504194516 23 36 0.0 0.0 0.00 0.00 0.00 31 1009.8
20260504193016 23 346 0.0 0.0 0.00 0.00 0.00 32 1009.9
20260504191513 23 248 0.0 0.0 0.00 0.00 0.00 30 1010.1
20260504190010 23 360 0.0 6.4 0.00 0.00 0.00 32 1010.4
20260504184508 23 247 3.2 9.7 0.00 0.00 0.00 32 1010.6
20260504183008 23 320 0.0 0.0 0.00 0.00 0.00 32 1010.7
20260504181506 23 213 0.0 0.0 0.00 0.00 0.00 35 1010.9
20260504180001 22 77 0.0 0.0 0.00 0.00 0.00 38 1011.1
20260504174618 22 265 0.0 0.0 0.00 0.00 0.00 33 1011.2
20260504173101 22 238 0.0 0.0 0.00 0.00 0.00 35 1011.3
20260504171554 21 196 0.0 0.0 0.00 0.00 0.00 40 1011.4
20260504090120 0 137 0.0 0.0 0.00 0.00 0.00 84 1014.5
20260504081511 1 137 0.0 0.0 0.00 0.00 0.00 83 1014.2
20260504044559 2 137 0.0 0.0 0.00 0.00 0.00 81 1013.8
20260504043054 2 137 0.0 0.0 0.00 0.00 0.00 80 1013.7
20260504041546 3 137 0.0 0.0 0.00 0.00 0.00 80 1013.5
20260504040100 3 137 0.0 0.0 0.00 0.00 0.00 79 1013.3
20260504034603 3 137 0.0 0.0 0.00 0.00 0.00 79 1013.3
20260504033039 3 137 0.0 0.0 0.00 0.00 0.00 78 1013.2
20260504031538 3 137 0.0 0.0 0.00 0.00 0.00 77 1013.1
20260504030037 3 137 0.0 0.0 0.00 0.00 0.00 77 1013.0
20260504024533 4 137 0.0 0.0 0.00 0.00 0.00 75 1013.0
20260504023031 5 137 0.0 0.0 0.00 0.00 0.00 74 1013.1
20260504021529 5 137 0.0 0.0 0.00 0.00 0.00 72 1013.0
20260504020028 5 137 0.0 0.0 0.00 0.00 0.00 71 1013.0
20260504014528 6 137 0.0 0.0 0.00 0.00 0.00 69 1012.9
20260504013036 7 137 0.0 0.0 0.00 0.00 0.00 66 1012.7
20260504011527 7 137 0.0 0.0 0.00 0.00 0.00 63 1012.6
20260504010026 8 137 0.0 0.0 0.00 0.00 0.00 59 1012.5
20260504004526 9 137 0.0 0.0 0.00 0.00 0.00 54 1012.2
20260504003026 10 137 0.0 0.0 0.00 0.00 0.00 50 1012.1
20260504001525 11 137 0.0 0.0 0.00 0.00 0.00 46 1011.9
20260504000026 12 137 0.0 1.6 0.00 0.00 0.00 41 1011.8
20260503234526 12 137 0.0 3.2 0.00 0.00 0.00 39 1011.6
20260503233023 13 127 0.0 0.0 0.00 0.00 0.00 39 1011.5
20260503231523 13 191 0.0 0.0 0.00 0.00 0.00 39 1011.5
20260503230028 13 175 0.0 0.0 0.00 0.00 0.00 36 1011.3
20260503224523 14 317 0.0 0.0 0.00 0.00 0.00 34 1011.4
20260503223023 14 291 0.0 0.0 0.00 0.00 0.00 39 1011.3
20260503221521 15 346 0.0 0.0 0.00 0.00 0.00 30 1011.2
20260503220020 15 289 0.0 0.0 0.00 0.00 0.00 33 1011.3